Location: Follega
(52.8850°N, 5.7362°E)
Time: 22:23:47
(UTC+00:00)

STARLINK-1212 - Pass Details

Date: 01 June 2020
Orbit: 549 x 550 km, 53.0° (Epoch: 05 July)

Event Time Altitude Azimuth Distance (km) Brightness Sun altitude
Rises 21:46:21 0° 285° (WNW) 2,708 7.8 -11.3°
Maximum altitude 21:52:37 52° 205° (SSW) 680 3.8 -11.7°
Enters shadow 21:55:42 16° 132° (SE) 1,465 5.2 -11.9°
